FW8669 Weather Reports


Display with metric or nautical units.
time (UTC)temp
F
wind
direction
speed
MPH
gust
MPH
rain 1hr
in
rain 24hr
in
rain mn
in
humidity
%
barometer
mb
20260504100131 61 257 7.0 11.0 0.00 0.19 0.19 69 1012.7
20260504081524 63 198 20.0 29.0 0.00 0.19 0.19 66 1011.5
20260504081019 62 233 17.0 29.0 0.00 0.19 0.19 70 1011.5
20260504080516 62 151 15.0 33.0 0.00 0.19 0.19 69 1011.6
20260504050328 58 202 20.0 33.0 0.00 0.19 0.19 76 1011.5
20260504045825 57 252 18.0 31.0 0.00 0.19 0.19 77 1011.3
20260504045320 57 222 24.0 32.0 0.00 0.19 0.19 78 1011.4
20260504044817 56 225 25.0 29.0 0.00 0.19 0.19 76 1011.4
20260504044315 56 229 30.0 33.0 0.00 0.19 0.19 77 1011.9
20260504043812 57 236 26.0 43.0 0.00 0.19 0.19 76 1011.6
20260504043309 57 196 20.0 29.0 0.05 0.19 0.19 82 1011.7
20260504042806 58 201 14.0 24.0 0.00 0.18 0.18 81 1011.6
20260504042304 57 223 7.0 21.0 0.00 0.18 0.18 80 1011.5
20260504041759 57 201 19.0 22.0 0.00 0.18 0.18 79 1011.4
20260504041255 55 239 15.0 21.0 0.00 0.18 0.18 82 1011.6
20260504040751 55 239 14.0 20.0 0.07 0.18 0.18 85 1011.5
20260504040249 54 235 9.0 22.0 0.19 0.18 0.18 87 1011.8
20260504035744 53 227 17.0 22.0 0.66 0.16 0.16 88 1012.3
20260504035242 55 208 11.0 17.0 0.71 0.15 0.15 88 1012.0
20260504034740 59 212 15.0 18.0 0.05 0.04 0.04 72 1012.0
20260504034237 60 263 15.0 18.0 0.00 0.03 0.03 69 1011.7
20260504033734 61 241 18.0 29.0 0.00 0.03 0.03 69 1011.5
20260504033231 61 221 16.0 24.0 0.00 0.03 0.03 66 1011.5
20260504032728 61 208 18.0 33.0 0.00 0.03 0.03 65 1011.7
20260504032225 61 222 18.0 34.0 0.00 0.03 0.03 62 1011.6
20260504031722 61 249 22.0 34.0 0.00 0.03 0.03 69 1011.8
20260504031220 60 181 30.0 46.0 0.00 0.03 0.03 69 1011.6
20260504030715 60 187 20.0 30.0 0.00 0.03 0.03 72 1011.5
20260504030213 60 206 24.0 31.0 0.00 0.03 0.03 67 1011.8
20260504025709 60 199 18.0 27.0 0.00 0.03 0.03 65 1011.8
20260504025206 60 198 20.0 37.0 0.00 0.03 0.03 64 1011.9
20260504024703 60 209 22.0 33.0 0.00 0.03 0.03 65 1011.7
20260504024159 59 217 15.0 27.0 0.00 0.03 0.03 72 1011.9
20260504023656 59 206 21.0 26.0 0.00 0.03 0.03 70 1011.6
20260504023152 59 212 32.0 35.0 0.00 0.03 0.03 70 1011.8
20260504022648 59 187 27.0 35.0 0.00 0.03 0.03 69 1011.5
20260504022144 59 217 25.0 40.0 0.00 0.03 0.03 69 1011.7
20260504021643 59 230 24.0 31.0 0.00 0.03 0.03 68 1012.1
20260504021139 60 239 28.0 33.0 0.00 0.03 0.03 68 1012.0
20260504020636 60 233 16.0 38.0 0.00 0.03 0.03 64 1011.9
20260504020132 59 208 18.0 30.0 0.00 0.03 0.03 61 1011.9
20260504015629 58 208 18.0 34.0 0.00 0.03 0.03 65 1012.0
20260504015125 58 219 15.0 27.0 0.00 0.03 0.03 69 1012.3
20260504014621 58 210 24.0 30.0 0.00 0.03 0.03 72 1012.2
20260504014118 58 235 11.0 29.0 0.00 0.03 0.03 73 1012.5
20260504013616 57 218 16.0 31.0 0.00 0.03 0.03 71 1012.3
20260504013113 55 168 16.0 29.0 0.07 0.03 0.03 80 1012.4
20260504012610 55 223 22.0 37.0 0.00 0.02 0.02 80 1012.4
20260504012108 55 241 16.0 27.0 0.05 0.02 0.02 78 1012.5
20260504011604 56 236 23.0 29.0 0.00 0.01 0.01 73 1012.6
20260504011100 60 242 27.0 42.0 0.00 0.01 0.01 65 1012.4
20260504010556 60 217 22.0 30.0 0.00 0.01 0.01 64 1012.0
20260504010052 59 207 21.0 34.0 0.00 0.01 0.01 66 1012.1
20260504005549 59 199 23.0 32.0 0.00 0.01 0.01 69 1012.1
20260504005047 61 227 21.0 39.0 0.00 0.01 0.01 65 1012.2
20260504004544 61 243 29.0 38.0 0.00 0.01 0.01 57 1012.0
20260504004041 61 230 15.0 27.0 0.00 0.01 0.01 61 1011.9
20260504003537 61 228 26.0 35.0 0.00 0.01 0.01 62 1012.0
20260504003034 60 248 14.0 21.0 0.00 0.01 0.01 65 1012.2
20260504002531 59 231 15.0 26.0 0.00 0.01 0.01 64 1012.4
20260504002029 59 203 15.0 18.0 0.00 0.01 0.01 65 1012.2
20260504001526 59 238 16.0 25.0 0.00 0.01 0.01 65 1012.5
20260504001022 59 215 21.0 26.0 0.00 0.01 0.01 65 1012.5
20260504000520 61 243 18.0 39.0 0.00 0.01 0.01 66 1012.2
20260504000017 60 236 25.0 38.0 0.00 0.01 0.01 60 1012.2
20260503235515 59 221 22.0 33.0 0.00 0.01 0.01 65 1012.3
20260503235012 58 193 15.0 17.0 0.00 0.01 0.01 69 1012.3
20260503234509 57 237 14.0 16.0 0.00 0.01 0.01 73 1012.4
20260503234008 57 223 13.0 17.0 0.00 0.01 0.01 75 1012.7
20260503233503 57 239 7.0 17.0 0.00 0.01 0.01 75 1012.4
20260503232959 57 223 10.0 14.0 0.00 0.01 0.01 77 1013.0
20260503232457 56 231 13.0 16.0 0.00 0.01 0.01 77 1012.7
20260503231954 56 226 15.0 18.0 0.00 0.01 0.01 77 1013.0
20260503231452 55 232 13.0 21.0 0.07 0.01 0.01 75 1013.3
20260503230948 57 226 23.0 31.0 0.07 0.01 0.01 74 1013.6
20260503230445 59 214 12.0 15.0 0.00 0.00 0.00 63 1013.0
20260503225943 59 231 14.0 15.0 0.00 0.00 0.00 62 1013.0
20260503225439 59 208 10.0 18.0 0.00 0.00 0.00 64 1013.1
20260503224934 59 253 7.0 13.0 0.00 0.00 0.00 64 1013.0
20260503224432 59 222 11.0 15.0 0.00 0.00 0.00 64 1013.3
20260503223929 59 201 8.0 15.0 0.00 0.00 0.00 64 1013.4
20260503223427 59 237 8.0 13.0 0.00 0.00 0.00 64 1013.3
20260503222922 59 241 11.0 21.0 0.00 0.00 0.00 63 1013.4
20260503222421 60 254 11.0 18.0 0.00 0.00 0.00 63 1013.4
20260503221919 60 245 16.0 21.0 0.00 0.00 0.00 62 1013.7
20260503221417 60 247 9.0 18.0 0.00 0.00 0.00 62 1013.4
20260503220913 60 256 7.0 25.0 0.00 0.00 0.00 61 1013.5
20260503220410 58 236 20.0 29.0 0.00 0.00 0.00 66 1013.5
20260503215907 58 248 13.0 21.0 0.00 0.00 0.00 67 1013.7
20260503215404 57 226 9.0 15.0 0.00 0.00 0.00 66 1013.5
20260503214902 58 233 10.0 14.0 0.00 0.00 0.00 67 1013.3
20260503214359 58 231 11.0 17.0 0.00 0.00 0.00 66 1013.5
20260503213856 58 259 15.0 24.0 0.00 0.00 0.00 64 1013.6
20260503213354 62 240 20.0 30.0 0.00 0.00 0.00 59 1013.4
20260503212850 61 219 17.0 32.0 0.00 0.00 0.00 57 1013.6
20260503212348 61 209 9.0 18.0 0.00 0.00 0.00 62 1013.3
20260503211845 61 216 15.0 25.0 0.00 0.00 0.00 61 1013.1
20260503211342 61 229 22.0 26.0 0.00 0.00 0.00 63 1013.1
20260503210837 61 214 17.0 23.0 0.00 0.00 0.00 63 1013.4
20260503210335 60 229 14.0 17.0 0.00 0.00 0.00 65 1013.1
20260503205829 60 253 13.0 16.0 0.00 0.27 0.27 64 1013.5
20260503205326 61 223 10.0 18.0 0.00 0.27 0.27 63 1013.5
20260503204823 61 209 13.0 20.0 0.00 0.27 0.27 63 1013.3
20260503204321 61 204 18.0 22.0 0.00 0.27 0.27 63 1013.1
20260503203818 61 223 12.0 18.0 0.00 0.27 0.27 63 1013.4
20260503203315 61 212 14.0 24.0 0.00 0.27 0.27 62 1013.5
20260503202812 60 209 21.0 25.0 0.00 0.27 0.27 61 1013.5
20260503202310 61 233 16.0 23.0 0.00 0.27 0.27 60 1013.4
20260503201808 61 176 22.0 25.0 0.00 0.27 0.27 62 1013.5
20260503201304 60 241 20.0 25.0 0.00 0.27 0.27 60 1013.6
20260503200802 60 252 16.0 27.0 0.00 0.27 0.27 61 1013.7
20260503200257 61 210 14.0 25.0 0.00 0.27 0.27 62 1013.6
20260503195755 60 195 13.0 30.0 0.00 0.27 0.27 62 1013.3
20260503195251 60 244 19.0 22.0 0.00 0.27 0.27 62 1013.6
20260503194749 61 211 19.0 26.0 0.00 0.27 0.27 62 1013.8
20260503194245 60 209 19.0 22.0 0.00 0.27 0.27 60 1013.7
20260503193741 61 217 12.0 24.0 0.00 0.27 0.27 59 1013.6
20260503193237 61 234 18.0 29.0 0.00 0.27 0.27 60 1013.7
20260503192733 61 232 18.0 27.0 0.00 0.27 0.27 57 1013.8
20260503192228 61 219 17.0 31.0 0.00 0.27 0.27 58 1013.8
20260503191725 61 213 15.0 20.0 0.00 0.27 0.27 60 1013.5
20260503191222 61 198 14.0 23.0 0.00 0.27 0.27 60 1013.5
20260503190719 61 222 20.0 29.0 0.00 0.27 0.27 59 1013.6
20260503190216 61 240 27.0 32.0 0.00 0.27 0.27 58 1013.4
20260503185713 61 213 9.0 24.0 0.00 0.27 0.27 61 1013.3
20260503185208 61 234 17.0 32.0 0.00 0.27 0.27 60 1013.3
20260503184703 61 194 15.0 22.0 0.00 0.27 0.27 61 1013.3
20260503184200 61 193 16.0 23.0 0.00 0.27 0.27 60 1013.4
20260503183656 61 240 19.0 24.0 0.00 0.27 0.27 60 1013.5
20260503183154 61 235 20.0 25.0 0.00 0.27 0.27 61 1013.3
20260503182652 61 223 18.0 27.0 0.00 0.27 0.27 60 1013.0
20260503182150 61 200 22.0 30.0 0.00 0.27 0.27 56 1012.8
20260503181646 61 221 20.0 26.0 0.00 0.27 0.27 57 1012.9
20260503181143 61 240 17.0 20.0 0.00 0.27 0.27 60 1012.8
20260503180640 61 241 16.0 27.0 0.00 0.27 0.27 58 1012.8
20260503180138 61 190 17.0 23.0 0.00 0.27 0.27 60 1012.8
20260503175635 61 245 12.0 26.0 0.00 0.27 0.27 60 1012.5
20260503175132 61 227 22.0 32.0 0.00 0.27 0.27 59 1012.5
20260503174628 61 233 23.0 26.0 0.00 0.27 0.27 59 1012.6
20260503174126 62 233 22.0 27.0 0.00 0.27 0.27 59 1012.5
20260503173620 61 221 14.0 23.0 0.00 0.27 0.27 60 1012.5
20260503173117 62 242 16.0 20.0 0.00 0.27 0.27 59 1012.4
20260503172614 62 228 19.0 23.0 0.00 0.27 0.27 60 1012.2
20260503172112 62 222 13.0 23.0 0.00 0.27 0.27 59 1012.3
20260503171608 62 252 15.0 26.0 0.00 0.27 0.27 60 1012.2
20260503171106 62 227 14.0 21.0 0.00 0.27 0.27 58 1012.3
20260503170602 62 254 18.0 26.0 0.00 0.27 0.27 59 1012.1
20260503150954 63 217 24.0 34.0 0.00 0.27 0.27 67 1011.4
20260503150451 63 236 15.0 25.0 0.00 0.27 0.27 68 1011.4
20260503131344 60 277 10.0 13.0 0.00 0.27 0.27 85 1011.7
20260503130841 60 248 5.0 10.0 0.00 0.27 0.27 86 1011.2
20260503130338 59 296 12.0 16.0 0.00 0.27 0.27 86 1011.4
20260503110732 61 201 12.0 15.0 0.12 0.18 0.18 92 1011.3
20260503110230 61 198 8.0 14.0 0.12 0.17 0.17 92 1011.4